Theta_e
330 333 332 330 326 326 327 331 336 337 338 338 339 338 337 336 335 334 332 330 328 328
328 329 327 324 326 326 331 333 336 338 338 338 339 338 336 335 335 333 331 329 329 328
325 326 325 324 327 330 332 336 336 337 338 338 338 337 335 335 333 332 331 329 327 326
322 324 325 327 329 332 333 336 336 337 337 337 336 335 335 334 332 331 328 327 327 326
322 325 326 329 331 333 334 336 337 337 337 337 336 334 334 331 330 329 327 326 326 325
323 326 327 329 332 333 334 336 337 337 336 335 335 333 332 331 330 329 328 327 326 326
324 327 329 331 332 334 336 336 336 337 337 335 334 333 331 330 329 328 327 326 326 326
329 330 332 333 334 335 336 336 337 335 335 335 334 331 329 329 327 326 325 325 324 325
333 333 334 334 334 334 335 334 335 335 333 331 327 307 310 322 326 325 324 323 323 324
332 333 331 333 333 333 331 332 330 328 326 323 318 302 304 309 326 324 323 322 322 323
332 332 331 332 331 328 328 327 324 322 321 319 312 301 301 308 323 323 322 322 323 323
331 330 329 327 326 325 323 322 321 320 319 318 313 300 301 314 320 320 321 323 323 323
329 328 327 325 324 323 322 319 320 318 320 312 315 298 300 314 320 319 320 320 318 305
327 326 326 324 322 321 319 318 316 316 318 319 316 308 299 303 320 319 318 318 318 317
Wind_Speed
15 11 10 10 8 7 7 6 7 8 7 7 8 8 8 6 5 7 6 8 5 3
12 13 11 10 8 6 5 5 8 8 8 8 9 9 8 5 7 7 6 6 6 3
12 12 11 8 9 8 7 8 9 9 10 10 9 8 8 6 5 7 5 4 7 4
9 9 8 9 7 8 7 10 11 12 11 10 10 8 7 7 8 8 7 6 7 6
8 9 10 9 9 9 10 10 11 11 11 10 9 9 9 9 8 9 8 7 7 6
11 11 12 11 10 11 11 10 10 11 12 11 10 9 8 9 9 8 7 7 7 7
12 13 12 11 11 11 12 12 12 12 11 10 10 9 9 8 7 6 5 5 5 6
9 9 10 11 13 12 12 11 12 12 10 10 9 8 9 7 6 6 5 4 5 5
12 12 12 12 13 13 11 11 11 11 12 10 6 10 11 9 6 6 6 6 4 4
13 12 13 12 12 12 13 12 11 10 10 8 7 9 11 10 5 5 5 6 6 5
13 13 12 12 11 11 12 12 10 10 10 9 5 9 11 10 7 5 5 5 6 6
13 13 13 13 12 12 12 10 9 9 11 9 7 8 11 10 7 6 5 4 5 5
12 15 15 14 13 10 11 11 9 11 8 9 8 7 9 9 6 7 4 3 3 4
12 14 16 14 12 13 12 12 11 11 8 8 7 6 8 11 6 5 5 4 3 2
Wind_Direction
229 228 218 215 202 190 193 176 138 182 185 187 178 177 163 170 169 171 171 160 166 164
218 216 207 203 190 183 158 146 161 171 177 177 179 169 154 166 169 171 161 163 160 158
208 206 205 169 183 175 156 149 155 175 173 171 162 155 170 160 151 150 150 151 157 168
212 196 173 180 174 170 149 166 171 176 160 162 161 160 163 155 154 153 146 150 172 178
196 177 177 181 176 164 172 169 170 162 154 159 155 166 157 158 154 155 162 172 172 175
189 178 182 176 172 166 162 164 158 152 156 159 164 162 163 151 159 160 171 176 172 174
189 185 176 166 158 158 160 159 157 158 157 159 161 158 155 148 149 159 175 169 177 176
171 143 137 147 154 156 157 158 154 147 148 151 158 152 148 146 155 164 165 174 185 189
158 148 146 155 159 158 143 141 143 149 145 148 135 127 131 144 156 162 163 177 178 181
149 144 152 156 152 147 141 140 137 127 125 115 118 131 142 137 145 149 160 165 165 161
160 146 143 142 140 135 131 131 122 116 113 119 113 123 132 122 124 128 140 162 168 160
161 143 143 140 140 125 117 115 120 118 121 124 125 135 127 113 114 117 138 151 159 156
154 146 140 134 131 117 116 118 115 113 110 122 131 135 123 112 123 137 129 118 122 64
143 146 130 125 120 115 115 112 113 113 118 115 122 135 131 128 140 145 144 145 154 153